[[{"header":{"parameterUnit":"m.s-1","parameterCategory":1,"la1":30.2991,"la2":30.254,"lo1":-89.0895,"lo2":-89.0444,"dy":0.0017,"dx":0.0017,"nx":28,"ny":28,"refTime":"2025-09-15T03:00:00:Z","depth":0,"parameterNumber":2,"parameterNumberName":"U-component_of_WINDS"},"data":[0,0,0,0,0,0,0,0,0,0,0,0,0,0,0,0,0,0,0,0,0,0,0,0,0,0,0,0,0,0,0,0,0,0,0,0,0,0,0,0,0,0,0,0,0,0,0,0,0,0,0,0,0,0,0,0,0,0,-0.4711,-0.4711,0,-0.4714,-0.4714,-0.4714,-0.4692,-0.4691,-0.4691,-0.469,-0.4694,-0.4695,-0.4696,0,0,0,0,0,0,0,0,0,0,0,0,0,-0.4686,-0.4687,-0.4711,-0.4711,-0.4711,-0.4714,-0.4714,-0.4714,-0.4692,-0.4691,-0.469,-0.469,-0.4694,-0.4695,-0.4696,0,0,0,0,0,0,0,0,0,0,0,0,0,-0.4694,-0.4687,-0.4711,-0.47,-0.4699,-0.4714,-0.4714,-0.4714,-0.4692,-0.4691,-0.469,-0.4689,-0.4694,-0.4695,-0.4696,-0.4721,0,0,-0.4699,-0.47,0,0,0,0,0,0,0,0,-0.4694,-0.4695,-0.4701,-0.4701,-0.47,-0.4701,-0.4707,-0.4717,-0.4692,-0.4695,-0.469,-0.4689,-0.4698,-0.4698,-0.4701,-0.4722,-0.4722,-0.4699,-0.47,-0.47,-0.4701,0,0,0,0,0,0,0,-0.4693,-0.4695,-0.4712,-0.4702,-0.4701,-0.4696,-0.4696,-0.4709,-0.4701,-0.4694,-0.4693,-0.4694,-0.4697,-0.47,-0.4701,-0.4722,-0.4699,-0.47,-0.4701,-0.4701,-0.4765,-0.4766,0,0,0,0,0,0,-0.4694,-0.4694,-0.4712,-0.4712,-0.4694,-0.4697,-0.4697,-0.4702,-0.4701,-0.47,-0.4694,-0.4693,-0.4699,-0.47,-0.4701,-0.4732,-0.47,-0.4701,-0.4702,-0.4764,-0.4765,-0.4766,0,0,0,0,0,0,-0.4693,-0.4696,-0.4712,-0.4703,-0.4704,-0.4698,-0.4704,-0.4702,-0.4706,-0.4701,-0.47,-0.4699,-0.4698,-0.47,-0.4717,-0.4732,-0.4702,-0.4703,-0.4763,-0.4764,-0.4766,-0.4793,0,0,0,0,0,0,-0.4693,-0.4696,-0.4705,-0.4703,-0.4705,-0.4727,-0.4705,-0.4703,-0.4707,-0.4705,-0.4705,-0.4704,-0.4697,-0.4715,-0.4718,-0.4733,-0.4704,-0.4761,-0.4763,-0.4765,-0.4791,-0.4796,-0.48,0,0,0,0,0,-0.4692,-0.4712,-0.4705,-0.4708,-0.4716,-0.4728,-0.4729,-0.4721,-0.4709,-0.4718,-0.4716,-0.4704,-0.4729,-0.4717,-0.472,-0.4735,-0.476,-0.4763,-0.4765,-0.4789,-0.4795,-0.48,0,0,0,0,0,0,-0.4716,-0.4712,-0.4704,-0.4724,-0.4727,-0.4724,-0.4736,-0.4727,-0.4733,-0.473,-0.472,-0.472,-0.4739,-0.4739,-0.4725,-0.4761,-0.4743,-0.4746,-0.476,-0.4766,-0.477,-0.477,-0.4705,0,0,0,0,0,-0.4724,-0.4733,-0.4729,-0.4747,-0.4749,-0.4742,-0.4747,-0.474,-0.4742,-0.4743,-0.4742,-0.4745,-0.4753,-0.4759,-0.4767,-0.4791,-0.4791,-0.4803,-0.4807,-0.481,-0.4814,-0.4827,-0.4833,-0.4774,-0.4774,-0.4774,0,0,-0.474,-0.4739,-0.4745,-0.4752,-0.4753,-0.4764,-0.4743,-0.4755,-0.4763,-0.4745,-0.4762,-0.4761,-0.4763,-0.4784,-0.4793,-0.4784,-0.483,-0.4813,-0.4816,-0.4817,-0.483,-0.4836,-0.4841,-0.4776,-0.4775,-0.4775,0,0,-0.4775,-0.4774,-0.479,-0.4792,-0.4793,-0.4789,-0.4793,-0.4792,-0.479,-0.4807,-0.4794,-0.4803,-0.4818,-0.4821,-0.4824,-0.486,-0.4851,-0.4863,-0.4886,-0.49,-0.4904,-0.4908,-0.4923,-0.4928,-0.4866,-0.4866,-0.4866,0,-0.4795,-0.481,-0.48,-0.4813,-0.4817,-0.4801,-0.4817,-0.4819,-0.4823,-0.4827,-0.4816,-0.4835,-0.4836,-0.4858,-0.4867,-0.487,-0.4875,-0.4864,-0.4904,-0.4908,-0.4912,-0.4926,-0.4931,-0.4868,-0.4868,-0.4867,-0.4867,0,-0.4835,-0.4846,-0.4858,-0.4863,-0.4868,-0.4883,-0.4876,-0.4882,-0.4875,-0.4872,-0.4889,-0.4889,-0.4897,-0.4902,-0.4895,-0.4923,-0.4918,-0.4906,-0.4888,-0.4919,-0.4932,-0.4937,-0.487,-0.4869,-0.4869,-0.4869,0,0,-0.4886,-0.4885,-0.489,-0.4892,-0.4893,-0.4901,-0.4915,-0.4923,-0.493,-0.4933,-0.4946,-0.4959,-0.4948,-0.4952,-0.4945,-0.4957,-0.4988,-0.4944,-0.4944,-0.4953,-0.5021,-0.5031,-0.5037,-0.4981,-0.4982,-0.4983,-0.5021,0,-0.4921,-0.4945,-0.4937,-0.4962,-0.4972,-0.4957,-0.497,-0.4972,-0.497,-0.4979,-0.4976,-0.4986,-0.497,-0.4973,-0.4984,-0.4982,-0.5002,-0.4979,-0.4994,-0.4994,-0.4995,-0.5043,-0.5053,-0.509,-0.5026,-0.5027,-0.5027,0,-0.4966,-0.4971,-0.4997,-0.4997,-0.5001,-0.5013,-0.502,-0.5028,-0.503,-0.5028,-0.5032,-0.5023,-0.5038,-0.5019,-0.504,-0.5025,-0.5031,-0.5031,-0.5032,-0.5034,-0.5014,-0.5048,-0.5101,-0.5107,-0.5035,-0.5034,-0.5034,0,-0.5002,-0.5016,-0.5034,-0.5036,-0.5036,-0.5044,-0.5045,-0.5046,-0.5052,-0.5058,-0.5061,-0.5069,-0.5074,-0.508,-0.5074,-0.506,-0.5096,-0.5076,-0.5095,-0.5096,-0.5105,-0.5104,-0.5161,-0.5106,-0.5106,-0.5106,-0.5106,0,-0.5043,-0.506,-0.505,-0.5061,-0.508,-0.507,-0.5089,-0.5088,-0.509,-0.5101,-0.5088,-0.5099,-0.5089,-0.5099,-0.5094,-0.5113,-0.5115,-0.5114,-0.5113,-0.5116,-0.5116,-0.512,-0.5118,-0.5107,-0.5107,-0.5106,-0.5106,0,-0.5088,-0.5081,-0.51,-0.5098,-0.5098,-0.5113,-0.5111,-0.5122,-0.5118,-0.5133,-0.5136,-0.513,-0.5142,-0.5136,-0.5147,-0.5144,-0.5169,-0.5163,-0.5168,-0.5167,-0.5187,-0.5186,-0.5249,-0.5258,-0.5196,-0.5197,-0.5197,0,-0.5115,-0.5128,-0.5128,-0.5134,-0.5136,-0.5146,-0.5151,-0.5142,-0.5149,-0.5153,-0.5163,-0.5173,-0.5181,-0.52,-0.5198,-0.5207,-0.5203,-0.5224,-0.5204,-0.5207,-0.5205,-0.5205,-0.5207,-0.5229,-0.5229,-0.523,-0.523,0,-0.5165,-0.5162,-0.517,-0.5177,-0.5184,-0.519,-0.5194,-0.52,-0.5191,-0.5199,-0.5211,-0.5217,-0.5229,-0.5239,-0.5247,-0.5248,-0.5239,-0.5237,-0.5242,-0.5246,-0.5249,-0.5249,-0.5181,-0.5236,-0.5235,-0.5235,-0.5234,-0.5234,-0.5203,-0.5214,-0.5216,-0.5226,-0.5228,-0.5233,-0.5243,-0.5241,-0.525,-0.5259,-0.5253,-0.5267,-0.527,-0.5279,-0.5282,-0.5293,-0.5285,-0.5292,-0.5294,-0.5296,-0.5299,-0.5246,-0.5294,-0.5294,-0.5294,-0.5294,-0.5294,0,-0.5254,-0.5254,-0.5263,-0.527,-0.5278,-0.5267,-0.5272,-0.5279,-0.5292,-0.5295,-0.5303,-0.5317,-0.5327,-0.5326,-0.5335,-0.5345,-0.5341,-0.5348,-0.5348,-0.5348,-0.5306,-0.5301,-0.5351,-0.5351,-0.5351,-0.5351,-0.5351,-0.5351,-0.5281,-0.53,-0.5297,-0.5317,-0.5317,-0.533,-0.5334,-0.5338,-0.5341,-0.5357,-0.5365,-0.5364,-0.5366,-0.5376,-0.5385,-0.5384,-0.5389,-0.5399,-0.5396,-0.5357,-0.5351,-0.5346,-0.5342,-0.5399,-0.5399,-0.5438,-0.5439,-0.5439]},{"header":{"parameterUnit":"m.s-1","parameterCategory":1,"la1":30.2991,"la2":30.254,"lo1":-89.0895,"lo2":-89.0444,"dy":0.0017,"dx":0.0017,"nx":28,"ny":28,"refTime":"2025-09-15T03:00:00:Z","depth":0,"parameterNumber":3,"parameterNumberName":"V-component_of_WINDS"},"data":[0,0,0,0,0,0,0,0,0,0,0,0,0,0,0,0,0,0,0,0,0,0,0,0,0,0,0,0,0,0,0,0,0,0,0,0,0,0,0,0,0,0,0,0,0,0,0,0,0,0,0,0,0,0,0,0,0,0,2.9589,2.9588,0,2.9541,2.954,2.9539,2.9479,2.9479,2.9478,2.9477,2.9427,2.9427,2.9426,0,0,0,0,0,0,0,0,0,0,0,0,0,2.9628,2.9627,2.9589,2.9588,2.9587,2.9541,2.954,2.9539,2.948,2.9478,2.9477,2.9476,2.9427,2.9427,2.9426,0,0,0,0,0,0,0,0,0,0,0,0,0,2.9598,2.9627,2.9589,2.9552,2.9548,2.9541,2.954,2.9539,2.948,2.9478,2.9477,2.9476,2.9427,2.9427,2.9426,2.9451,0,0,2.9424,2.9424,0,0,0,0,0,0,0,0,2.96,2.9597,2.9558,2.9555,2.955,2.9515,2.9536,2.951,2.948,2.9506,2.9477,2.9475,2.9457,2.9454,2.9448,2.9448,2.9446,2.9424,2.9424,2.9423,2.9423,0,0,0,0,0,0,0,2.9602,2.9599,2.957,2.9557,2.9553,2.9538,2.9532,2.953,2.949,2.9503,2.9499,2.9494,2.9455,2.9449,2.9447,2.9446,2.9424,2.9424,2.9423,2.9423,2.9461,2.9463,0,0,0,0,0,0,2.961,2.9601,2.9571,2.9568,2.9572,2.9538,2.9532,2.9527,2.949,2.9483,2.9495,2.9492,2.9451,2.9447,2.9445,2.9469,2.9423,2.9423,2.9422,2.946,2.9462,2.9463,0,0,0,0,0,0,2.9611,2.9608,2.9573,2.9583,2.9578,2.9539,2.9535,2.9527,2.9521,2.9484,2.9476,2.9497,2.945,2.9446,2.9449,2.9467,2.9423,2.9422,2.9458,2.9461,2.9463,2.9519,0,0,0,0,0,0,2.9612,2.9608,2.9618,2.9584,2.9577,2.9579,2.9536,2.9527,2.952,2.9515,2.9483,2.9477,2.9448,2.9451,2.9449,2.9465,2.9421,2.9457,2.9459,2.9462,2.9516,2.9523,2.953,0,0,0,0,0,2.9614,2.9636,2.9618,2.9615,2.9588,2.958,2.9576,2.9543,2.9522,2.953,2.9506,2.9478,2.9466,2.9451,2.9449,2.9465,2.9455,2.9459,2.9462,2.9513,2.9522,2.9529,0,0,0,0,0,0,2.9673,2.9631,2.9611,2.9623,2.9605,2.957,2.958,2.9554,2.9542,2.9537,2.9497,2.949,2.9498,2.9482,2.9467,2.9486,2.9456,2.9459,2.9496,2.9504,2.9511,2.9514,2.9421,0,0,0,0,0,2.9687,2.9684,2.9648,2.9662,2.9654,2.9619,2.9614,2.959,2.957,2.9562,2.9539,2.952,2.9512,2.9508,2.9498,2.9514,2.9505,2.9524,2.9531,2.9537,2.9539,2.9544,2.9551,2.9474,2.9474,2.9474,0,0,2.9717,2.9693,2.9694,2.9673,2.9657,2.9654,2.9613,2.9612,2.9609,2.9562,2.9563,2.9546,2.9523,2.9532,2.9535,2.9519,2.9558,2.9541,2.9546,2.9544,2.9548,2.9555,2.9562,2.9476,2.9475,2.9475,0,0,2.9768,2.9752,2.976,2.9745,2.9721,2.9697,2.9699,2.9667,2.9654,2.9655,2.9619,2.9615,2.9602,2.9587,2.9577,2.9623,2.9595,2.9621,2.9656,2.9662,2.9668,2.9673,2.9687,2.9693,2.9624,2.9624,2.9624,0,2.9808,2.9803,2.9768,2.9769,2.976,2.9718,2.9726,2.9713,2.9687,2.9681,2.9664,2.9646,2.9628,2.9632,2.9643,2.9637,2.9637,2.9624,2.967,2.9675,2.9679,2.9692,2.9698,2.9627,2.9627,2.9627,2.9626,0,2.9851,2.9848,2.9858,2.9834,2.9827,2.9831,2.9797,2.9793,2.9771,2.9748,2.9749,2.9726,2.971,2.971,2.9687,2.971,2.97,2.9678,2.9646,2.969,2.9701,2.9706,2.9632,2.9631,2.963,2.9629,0,0,2.9937,2.9894,2.9898,2.9886,2.9856,2.9853,2.9855,2.984,2.9837,2.9821,2.9821,2.9811,2.9789,2.9778,2.9754,2.9759,2.9794,2.9735,2.9733,2.9744,2.9815,2.9831,2.9838,2.9776,2.9777,2.9778,2.9816,0,2.9982,2.9983,2.9952,2.9962,2.9958,2.9918,2.992,2.9902,2.9881,2.9874,2.9852,2.9844,2.9817,2.981,2.9814,2.9789,2.9807,2.9786,2.9774,2.9774,2.9779,2.9844,2.9861,2.9898,2.9821,2.9821,2.9822,0,3.0034,3.002,3.0029,2.9998,2.9995,2.9998,2.998,2.9975,2.9953,2.9938,2.9926,2.9898,2.9897,2.9869,2.9867,2.9853,2.9847,2.9834,2.9834,2.983,2.9799,2.9839,2.9909,2.9914,2.9829,2.9829,2.9828,0,3.0092,3.0077,3.008,3.0071,3.0035,3.0038,3.0023,3.0,2.9992,2.9977,2.9971,2.9957,2.9949,2.9938,2.9906,2.9889,2.9907,2.9876,2.9892,2.9893,2.9896,2.9896,2.9964,2.9896,2.9896,2.9896,2.9896,0,3.0144,3.0151,3.0105,3.0107,3.0113,3.0078,3.0085,3.0066,3.0046,3.0042,3.0008,3.0005,2.9965,2.9958,2.9933,2.9934,2.9931,2.9917,2.991,2.9919,2.992,2.9912,2.9908,2.9897,2.9897,2.9897,2.9896,0,3.021,3.018,3.018,3.0147,3.0139,3.0144,3.0115,3.0115,3.0093,3.0089,3.0086,3.0051,3.004,3.0008,2.999,2.9973,2.998,2.9969,2.9988,2.9983,2.9999,2.9997,3.0063,3.0069,3.0,3.0,3.0001,0,3.0243,3.0248,3.0214,3.021,3.0197,3.019,3.0182,3.0147,3.014,3.0115,3.0118,3.0104,3.0092,3.0077,3.0049,3.0034,3.0021,3.0045,3.0018,3.0026,3.0018,3.0017,3.0017,3.005,3.0051,3.0052,3.0052,0,3.0306,3.0291,3.0281,3.0265,3.0257,3.0243,3.0227,3.0225,3.0186,3.018,3.0169,3.0159,3.014,3.0127,3.0108,3.0092,3.0065,3.0061,3.0063,3.0071,3.0081,3.0074,3.0001,3.0059,3.0058,3.0058,3.0058,3.0057,3.0354,3.0356,3.0332,3.0322,3.0307,3.0293,3.029,3.0268,3.0258,3.024,3.022,3.0211,3.0188,3.0159,3.0145,3.0137,3.0123,3.0127,3.0127,3.0128,3.0132,3.0085,3.0134,3.0133,3.0133,3.0133,3.0133,0,3.0413,3.0396,3.0387,3.0366,3.0357,3.0334,3.0315,3.031,3.0302,3.0283,3.0271,3.0258,3.0245,3.0216,3.02,3.0199,3.0186,3.0196,3.0194,3.019,3.0146,3.0145,3.0206,3.0206,3.0206,3.0206,3.0206,3.0206,3.0442,3.0442,3.0425,3.0417,3.0399,3.039,3.0381,3.0368,3.0352,3.0339,3.0328,3.031,3.0286,3.0268,3.0255,3.0246,3.0241,3.0254,3.0242,3.0201,3.0194,3.0187,3.0185,3.0254,3.0254,3.0286,3.0286,3.0287]}]]